FW1340 Weather Reports


time (UTC)temp
C
wind
direction
speed
KPH
gust
KPH
rain 1hr
cm
rain 24hr
cm
rain mn
cm
humidity
%
barometer
mb
20260831023047 27 263 0.0 0.0 0.00 0.00 0.00 42 1009.7
20260831021547 28 253 0.0 0.0 0.00 0.00 0.00 41 1009.6
20260831020046 29 281 0.0 0.0 0.00 0.00 0.00 38 1009.5
20260831014550 30 294 0.0 0.0 0.00 0.00 0.00 37 1009.5
20260831013045 30 276 0.0 0.0 0.00 0.00 0.00 35 1009.4
20260831011544 31 265 0.0 0.0 0.00 0.00 0.00 34 1009.5
20260831010043 31 281 0.0 0.0 0.00 0.00 0.00 33 1009.6
20260831004546 31 273 0.0 0.0 0.00 0.00 0.00 33 1009.6
20260831003041 31 268 0.0 0.0 0.00 0.00 0.00 32 1009.6
20260831001541 31 266 0.0 0.0 0.00 0.00 0.00 32 1009.7
20260831000053 31 256 0.0 0.0 0.00 0.00 0.00 33 1009.8
20260830234546 31 265 0.0 0.0 0.00 0.00 0.00 34 1009.9
20260830233053 31 257 0.0 0.0 0.00 0.00 0.00 36 1010.1
20260830231535 31 301 0.0 0.0 0.00 0.00 0.00 36 1010.1
20260830230032 31 252 0.0 0.0 0.00 0.00 0.00 34 1010.3
20260830224529 31 264 0.0 0.0 0.00 0.00 0.00 34 1010.5
20260830223028 31 264 0.0 0.0 0.00 0.00 0.00 36 1010.7
20260830221526 31 217 0.0 0.0 0.00 0.00 0.00 37 1010.8
20260830220030 30 302 0.0 0.0 0.00 0.00 0.00 39 1011.1
20260830214519 30 267 0.0 0.0 0.00 0.00 0.00 39 1011.4
20260830213021 30 293 0.0 0.0 0.00 0.00 0.00 41 1011.5
20260830211513 29 248 0.0 0.0 0.00 0.00 0.00 42 1011.8
20260830210019 28 265 0.0 0.0 0.00 0.00 0.00 43 1011.9
20260830204506 28 275 0.0 0.0 0.00 0.00 0.00 45 1012.0
20260830203002 27 237 0.0 0.0 0.00 0.00 0.00 46 1012.1
20260830201618 27 262 0.0 0.0 0.00 0.00 0.00 48 1012.2
20260830194551 26 236 0.0 0.0 0.00 0.00 0.00 51 1012.7
20260830193047 25 294 0.0 0.0 0.00 0.00 0.00 52 1012.8
20260830191615 25 221 0.0 0.0 0.00 0.00 0.00 55 1012.9
20260830190053 24 225 0.0 0.0 0.00 0.00 0.00 56 1013.2
20260830184538 23 337 0.0 0.0 0.00 0.00 0.00 58 1013.3
20260830183033 23 286 0.0 0.0 0.00 0.00 0.00 58 1013.4
20260830181530 22 309 0.0 0.0 0.00 0.00 0.00 60 1013.5
20260830180035 22 279 0.0 0.0 0.00 0.00 0.00 62 1013.6
20260830174528 21 227 0.0 0.0 0.00 0.00 0.00 63 1013.6
20260830173019 21 255 0.0 0.0 0.00 0.00 0.00 62 1013.6
20260830171515 21 277 0.0 0.0 0.00 0.00 0.00 64 1013.6
20260830170012 20 319 0.0 0.0 0.00 0.00 0.00 66 1013.5
20260830164510 20 305 0.0 0.0 0.00 0.00 0.00 68 1013.6
20260830163018 19 306 0.0 0.0 0.00 0.00 0.00 70 1013.5
20260830161501 18 268 0.0 0.0 0.00 0.00 0.00 71 1013.5
20260830160100 18 267 0.0 0.0 0.00 0.00 0.00 70 1013.6
20260830154602 17 271 0.0 0.0 0.00 0.00 0.00 71 1013.8
20260830153049 17 288 0.0 0.0 0.00 0.00 0.00 72 1013.6
20260830151545 16 315 0.0 0.0 0.00 0.00 0.00 76 1013.6
20260830150044 14 42 0.0 0.0 0.00 0.00 0.00 82 1013.5
20260830144543 13 344 0.0 0.0 0.00 0.00 0.00 84 1013.4
20260830143034 12 325 0.0 0.0 0.00 0.00 0.00 86 1013.4
20260830141530 11 46 0.0 0.0 0.00 0.00 0.00 87 1013.2
20260830140026 11 46 0.0 0.0 0.00 0.00 0.00 87 1012.8
20260830134523 11 46 0.0 0.0 0.00 0.00 0.00 87 1012.6
20260830133022 10 46 0.0 0.0 0.00 0.00 0.00 86 1012.6
20260830131539 11 84 0.0 0.0 0.00 0.00 0.00 85 1012.5
20260830130018 11 126 0.0 0.0 0.00 0.00 0.00 85 1012.4
20260830124515 11 126 0.0 0.0 0.00 0.00 0.00 85 1012.4
20260830123014 11 99 0.0 0.0 0.00 0.00 0.00 84 1012.4
20260830121512 11 99 0.0 0.0 0.00 0.00 0.00 84 1012.1
20260830120012 11 65 0.0 0.0 0.00 0.00 0.00 85 1012.2
20260830114510 11 92 0.0 0.0 0.00 0.00 0.00 84 1012.2
20260830113013 11 103 0.0 0.0 0.00 0.00 0.00 82 1012.1
20260830111506 12 103 0.0 0.0 0.00 0.00 0.00 81 1012.0
20260830110004 12 126 0.0 0.0 0.00 0.00 0.00 81 1012.0
20260830104502 12 132 0.0 0.0 0.00 0.00 0.00 81 1012.0
20260830103100 12 118 0.0 0.0 0.00 0.00 0.00 79 1012.0
20260830101606 12 102 0.0 0.0 0.00 0.00 0.00 79 1012.0
20260830100056 13 261 0.0 0.0 0.00 0.00 0.00 77 1012.1
20260830094554 13 226 0.0 0.0 0.00 0.00 0.00 79 1012.1
20260830093052 13 226 0.0 0.0 0.00 0.00 0.00 78 1012.0
20260830091551 13 226 0.0 0.0 0.00 0.00 0.00 78 1012.1
20260830090052 13 79 0.0 0.0 0.00 0.00 0.00 78 1012.2
20260830084548 13 78 0.0 0.0 0.00 0.00 0.00 76 1012.1
20260830083052 14 123 0.0 0.0 0.00 0.00 0.00 75 1012.2
20260830081542 15 115 0.0 0.0 0.00 0.00 0.00 70 1012.2
20260830080043 15 15 0.0 0.0 0.00 0.00 0.00 75 1012.2
20260830074540 15 45 0.0 0.0 0.00 0.00 0.00 74 1012.2
20260830073037 15 45 0.0 0.0 0.00 0.00 0.00 75 1012.2
20260830071534 16 55 0.0 0.0 0.00 0.00 0.00 72 1012.3
20260830070050 16 59 0.0 0.0 0.00 0.00 0.00 73 1012.2
20260830064532 16 243 0.0 0.0 0.00 0.00 0.00 72 1012.2
20260830063034 16 130 0.0 0.0 0.00 0.00 0.00 68 1012.2
20260830061532 17 236 0.0 0.0 0.00 0.00 0.00 69 1012.1
20260830060044 17 176 0.0 0.0 0.00 0.00 0.00 65 1012.0
20260830054530 18 138 0.0 0.0 0.00 0.00 0.00 64 1012.0
20260830053029 18 117 0.0 0.0 0.00 0.00 0.00 61 1012.1
20260830051535 18 152 0.0 0.0 0.00 0.00 0.00 63 1012.1
20260830050028 19 88 0.0 0.0 0.00 0.00 0.00 61 1012.2
20260830044538 20 238 0.0 0.0 0.00 0.00 0.00 61 1012.0
20260830043027 20 64 0.0 0.0 0.00 0.00 0.00 59 1012.0
20260830041546 21 173 0.0 0.0 0.00 0.00 0.00 57 1011.9
20260830040030 21 229 0.0 0.0 0.00 0.00 0.00 56 1011.6
20260830034526 22 263 0.0 0.0 0.00 0.00 0.00 55 1011.3
20260830033030 22 302 0.0 0.0 0.00 0.00 0.00 54 1010.9
20260830031530 23 244 0.0 0.0 0.00 0.00 0.00 53 1010.7
20260830030028 24 232 0.0 0.0 0.00 0.00 0.00 49 1010.7
20260830024523 25 270 0.0 0.0 0.00 0.00 0.00 46 1010.9